Location: *
(41.7492°S, 135.4150°W)
Time: 18:17:33
(UTC+00:00)

Cosmos 1340 Rocket - Pass Details

Date: 20 September 2021
Orbit: 528 x 558 km, 81.2° (Epoch: 15 October)

Event Time Altitude Azimuth Distance (km) Brightness Sun altitude
Rises 13:22:57 0° 7° (N) 2,664 6.2 -17.6°
Reaches altitude 10° 13:25:08 10° 13° (NNE) 1,783 5.4 -17.2°
Maximum altitude 13:28:52 44° 85° (E) 749 4.0 -16.5°
Drops below altitude 10° 13:32:41 10° 157° (SSE) 1,813 5.9 -15.8°
Sets 13:34:55 0° 163° (SSE) 2,716 6.8 -15.4°
